Weather in Kob

Russia / Irkutsk Oblast     55°25′58″N   101°22′08″E
temp.,
°C
wind,
m/s
gust,
m/s
humid.,
%
clouds,
%
prec.,
mm/h
press.,
hPa
HPBL,
m
17 april, sat
sat1723:00+5sw51484100 0.0 1007382
02:00+3sw51483100 0.0 1006349
05:00+5wsw71680100 0.1 1004728
08:00+1nw51098100 0.2 1008491
11:00+2wnw6988100 0.2 1009988
14:00+1nw6973100 0.3 10101252
17:000wnw51072100 0.7 10131383
20:00−3nw61074100 0.7 1017646
18 april, sun
sun1823:00−5nw497786 0.1 1021387
02:00−7nnw37776 0.1 1025589
05:00−8wnw12853 0.0 102774
08:00−7ssw11652 0.0 1028511
11:00−4s345586 0.0 1026959
14:00−1sse4548100 0.0 10221283
17:000sse4748100 0.0 10191422
20:00−1sse2564100 0.0 1018104
19 april, mon
mon1923:00−3se2574100 0.0 101882
02:00−4s1277100 0.0 101652
05:00−4s2281100 0.0 101430
08:00−1se387530 0.0 1010232
11:00+3sse61462100 0.0 1005773
14:00+6s61360100 0.1 999768
17:00+9wsw102062100 0.2 9971967
20:00−2w11236457 0.3 10081629
20 april, tue
tue2023:00−5w10207499 0.0 10131350
02:00−7w10196967 0.0 10151205
05:00−7w7166886 0.0 10171268
08:00−7wnw8165778 0.0 10181181
11:00−4w8124483 0.0 10181595
14:00−2w71136100 0.0 10182270
17:00−2wnw71242100 0.0 10182286
20:00−4wnw5944100 0.0 10201511
21 april, wed
wed2123:00−5w47555 0.0 1021862
02:00−6wsw486554 0.0 1022744
05:00−7w49735 0.0 1022677
08:00−6w576894 0.0 1023877
11:00−3w5747100 0.0 10241617
14:00−1wnw5641100 0.1 10232056
17:00−1wnw5543100 0.1 10241753
20:00−2nw365498 0.1 1027256